Wind_Speed
55 56 57 58 59 59 60 61 61 62 62 63 64 65 66 67 68 68 69 69 70 70 71 72 73 74 74 75 76 78 79 81 82 83 85 86 87 88 89 89 90 91 92 93 93 93 92 93 93 94 95 96 96 97 97 98 99 100 102 103 105 106 108 109 111 114 117 119 121 122 123 125 127 128 128 129 129 130 130 131 130 130 129 128 127
57 58 59 60 61 61 62 63 63 64 64 65 66 67 68 69 69 69 70 70 71 71 72 72 73 74 75 77 78 80 82 83 85 86 87 88 88 89 90 90 91 92 92 92 92 92 92 92 93 94 95 96 97 98 98 98 99 101 103 105 106 108 109 111 113 116 118 121 123 124 125 127 127 128 128 129 129 128 128 127 126 125 124 123 121
59 60 61 62 63 63 64 65 66 66 67 68 68 70 70 71 71 71 72 72 72 72 72 73 74 75 77 78 80 82 84 86 87 88 88 89 89 89 89 90 90 90 90 91 92 92 92 93 94 95 96 97 98 98 99 99 100 101 104 106 108 110 112 114 116 118 119 122 124 125 126 127 127 128 128 127 126 125 123 123 121 120 119 118 117
61 62 63 64 65 65 66 67 68 69 70 71 72 72 73 73 73 74 74 75 75 74 74 75 75 77 78 80 82 84 85 86 87 88 88 88 88 87 87 88 88 88 89 90 91 92 93 94 95 96 97 98 99 100 100 100 101 103 106 108 110 112 114 116 118 119 120 122 124 125 126 126 126 126 125 123 121 121 120 118 117 116 115 113 113
64 65 66 67 68 68 68 69 70 71 72 73 74 74 74 74 75 76 76 77 76 76 76 77 77 79 80 82 83 85 86 87 87 87 87 87 86 86 86 87 87 88 89 91 92 93 94 95 96 98 99 100 101 102 102 102 103 106 108 110 111 113 115 117 119 120 121 122 124 124 124 124 123 122 121 119 119 118 117 115 114 113 112 111 112
67 68 69 69 70 70 70 71 72 73 74 75 76 76 75 76 77 78 78 77 77 77 78 79 80 81 83 84 85 86 87 86 86 86 86 86 87 87 88 88 89 90 91 92 93 94 95 96 98 100 101 103 104 105 105 106 107 108 110 111 113 115 117 119 120 121 122 122 122 122 121 120 120 120 118 117 117 115 113 112 112 113 112 112 113
70 71 71 71 72 72 72 73 74 76 76 77 76 76 76 78 79 80 79 77 77 77 79 81 82 83 84 85 85 85 85 85 85 86 87 88 88 89 89 90 90 91 93 94 94 95 97 99 101 103 105 106 108 109 109 109 110 112 113 114 115 117 119 120 121 122 121 121 120 119 119 119 120 119 117 115 114 112 111 111 112 113 112 112 113
72 73 73 74 74 74 74 75 76 77 77 77 76 76 78 80 81 80 78 77 77 79 80 82 83 84 84 84 83 84 84 85 86 87 88 90 90 91 92 92 92 93 94 95 96 97 99 102 104 106 108 110 111 112 113 114 114 115 116 117 118 119 120 121 122 121 120 119 119 119 119 119 119 117 115 113 112 112 111 112 112 113 112 111 110
74 75 75 76 76 76 75 76 77 77 77 76 77 78 81 82 81 79 78 78 79 80 81 83 83 84 84 84 84 85 86 87 88 89 90 92 92 93 93 93 94 95 96 97 98 101 103 105 107 109 111 113 115 116 117 117 118 118 119 119 120 120 121 121 121 121 120 120 121 120 119 118 117 115 114 113 113 113 113 113 112 112 111 109 107
76 77 78 78 77 76 77 78 78 78 78 79 81 82 83 81 79 78 78 79 80 81 82 83 83 84 85 85 86 87 88 89 90 91 92 93 94 95 95 95 97 98 99 100 102 104 106 108 111 113 114 116 118 119 120 121 121 121 122 122 121 122 121 121 122 122 123 123 122 120 118 116 115 115 115 115 115 115 115 114 113 111 109 107 106
78 79 79 79 78 78 79 80 80 81 82 82 83 83 81 79 78 79 79 80 81 82 83 83 84 85 86 87 88 89 90 91 91 92 93 94 96 97 97 98 100 101 102 104 106 108 110 112 114 115 117 118 120 121 123 124 124 124 123 123 123 123 123 123 124 124 124 123 120 118 116 115 116 117 118 118 117 117 116 115 113 110 108 106 106
80 81 81 81 81 81 82 83 83 84 84 83 81 79 78 78 78 79 80 82 83 84 85 85 86 87 87 88 89 90 91 92 93 94 95 97 98 99 100 102 103 104 106 107 109 111 113 115 116 118 119 121 122 124 126 127 126 125 125 124 125 125 125 125 125 125 123 121 118 117 117 118 118 119 120 120 119 117 116 115 113 110 108 106 105
82 83 83 84 84 85 86 87 87 87 85 81 78 77 77 78 79 80 81 83 85 85 87 88 89 89 90 91 92 92 93 94 96 97 98 99 101 102 103 105 106 107 109 110 112 114 116 117 119 120 122 124 125 127 128 128 128 126 126 126 127 127 127 126 125 124 122 120 118 119 120 121 121 121 121 120 119 118 116 115 113 111 109 107 105
84 84 85 86 87 89 90 90 90 88 84 80 78 79 80 81 81 82 83 85 86 87 88 89 90 91 92 93 94 94 95 97 98 100 101 102 104 105 106 108 109 110 112 113 115 117 119 120 122 124 126 128 129 130 130 129 129 128 128 128 128 127 126 125 124 123 122 121 121 122 123 123 122 122 121 120 119 118 116 115 114 113 110 108 105
85 86 87 89 91 92 92 91 89 85 82 81 81 83 84 84 84 84 85 86 87 88 89 89 90 92 93 94 95 96 98 100 101 102 104 105 107 108 109 110 111 112 114 116 118 120 122 124 126 128 130 131 131 131 131 131 130 130 129 129 128 127 125 125 125 124 122 122 123 124 124 123 122 121 121 120 119 118 116 115 114 113 110 107 104
87 89 91 92 92 91 90 87 85 83 82 83 85 86 86 85 85 86 86 87 88 89 89 90 91 92 94 95 97 98 100 102 103 105 106 108 109 111 111 112 113 115 117 119 121 123 125 127 129 131 132 133 133 133 132 132 131 131 130 129 127 126 125 126 126 125 124 125 125 124 124 123 122 121 120 119 119 118 116 114 113 112 109 106 104
90 91 92 91 90 88 86 83 82 82 84 86 87 87 87 87 86 87 87 88 89 90 91 92 93 94 96 98 99 100 102 104 105 107 109 110 112 113 114 114 115 117 119 121 123 125 127 129 131 132 133 134 134 134 134 134 133 132 131 129 127 125 126 127 128 126 126 126 125 125 124 123 122 120 120 119 118 117 115 113 112 109 107 105 103
92 91 90 88 85 84 82 81 81 83 85 87 87 87 87 87 88 88 88 89 90 92 93 94 96 97 99 100 102 103 105 107 108 110 111 113 114 115 116 117 117 119 121 123 125 127 130 132 133 133 134 135 135 136 136 135 134 132 130 128 127 126 127 128 127 127 127 126 125 125 124 123 122 121 120 119 118 116 114 111 110 108 105 104 102
90 89 87 84 82 81 80 81 82 84 85 86 87 87 88 89 89 89 90 90 92 93 95 96 98 100 101 103 105 106 108 109 111 112 114 115 117 118 118 119 120 121 123 125 127 130 132 133 134 135 136 137 137 137 137 135 134 132 130 128 127 127 127 127 127 126 126 126 126 125 124 124 123 122 121 119 118 115 112 110 108 106 104 102 101
89 88 86 84 83 82 82 82 83 84 85 87 88 89 90 90 91 91 92 93 94 95 97 99 100 102 104 106 108 109 111 112 113 115 116 118 119 120 121 122 123 124 126 127 129 131 133 135 136 137 138 138 138 137 136 135 133 130 129 128 127 127 127 126 126 126 126 125 125 125 124 124 123 122 120 118 116 114 111 109 107 104 103 101 99
89 87 86 86 85 84 84 84 84 86 87 88 89 90 91 92 92 93 94 95 96 98 100 102 103 105 107 109 110 112 113 115 116 117 119 120 121 122 123 125 126 127 128 129 131 133 135 136 137 138 138 138 137 136 134 133 131 129 128 128 128 127 127 126 126 126 126 125 125 124 124 124 123 121 119 117 114 112 110 108 105 103 101 99 96
88 87 87 86 85 85 85 86 87 88 89 90 91 92 93 94 95 96 98 99 100 102 104 105 107 109 110 112 113 114 116 117 119 120 121 122 124 125 127 128 129 130 130 132 133 135 137 137 137 137 137 136 135 133 132 130 129 129 128 128 128 128 127 127 127 126 126 125 125 124 124 123 121 120 118 116 114 112 110 108 105 102 99 97 95
88 87 87 87 87 87 88 89 90 91 92 93 94 95 97 98 99 100 101 103 105 106 108 110 111 112 114 115 116 117 119 120 121 122 124 125 126 128 129 130 132 133 133 135 136 137 137 136 136 135 134 133 131 130 129 128 128 129 129 129 128 128 128 128 127 127 126 125 124 123 122 120 119 117 116 115 113 111 109 107 104 100 97 95 92
88 88 88 89 89 90 91 92 93 94 95 96 97 99 100 101 103 104 106 107 109 111 112 114 115 116 117 117 118 119 121 122 123 124 126 127 129 130 131 133 134 135 136 136 136 135 135 134 134 132 131 129 128 127 127 127 128 128 128 128 129 129 129 129 128 127 126 125 123 122 120 118 117 115 114 113 111 109 107 104 100 97 94 92 90
90 91 91 92 93 93 94 95 96 98 99 100 101 102 104 105 106 108 110 112 113 115 116 117 117 118 118 119 120 121 122 123 125 126 128 129 131 132 134 134 135 135 135 134 134 133 132 132 130 129 127 126 126 126 126 127 127 127 128 128 129 129 129 128 128 127 125 124 122 120 118 116 115 113 112 110 108 106 103 100 97 94 91 89 87
94 94 95 95 96 97 98 99 101 102 104 105 106 107 108 109 111 112 114 116 117 118 118 119 119 120 120 121 122 123 125 126 127 129 130 131 132 133 134 134 134 134 133 133 132 131 130 128 127 126 125 125 125 125 126 126 126 127 127 128 128 128 127 127 126 125 124 122 120 118 117 115 114 112 111 108 105 103 100 97 93 91 89 86 84
98 99 99 100 101 102 104 105 106 107 109 110 111 112 113 114 115 117 118 119 119 120 120 120 121 121 122 123 124 125 127 128 129 130 131 131 132 132 132 132 132 131 131 130 129 128 126 125 125 125 125 125 125 125 125 126 126 126 127 127 126 126 125 124 123 122 121 120 118 117 115 114 112 110 108 106 103 100 97 93 90 88 86 84 82
104 104 105 106 107 108 109 110 112 113 114 115 116 116 117 118 119 120 120 121 121 121 121 122 122 123 124 125 126 127 128 128 129 130 130 130 130 130 130 130 129 128 128 127 126 125 124 124 125 125 126 126 126 126 126 126 126 126 126 126 125 124 123 122 121 120 119 118 116 115 113 111 109 107 106 103 100 97 94 91 88 86 84 82 80
109 110 111 111 112 113 114 115 116 117 118 119 120 120 121 122 122 122 122 122 123 123 123 124 124 125 126 126 127 127 128 128 129 129 129 129 128 128 127 126 125 125 124 124 124 124 124 125 126 126 126 126 127 127 127 127 127 126 125 125 124 123 122 120 119 118 117 116 115 114 112 110 107 105 103 100 98 95 92 89 87 85 83 81 79
115 116 116 117 117 118 119 120 121 122 122 123 123 123 124 124 124 124 124 124 125 125 125 125 126 126 126 126 127 127 127 127 127 127 126 126 125 124 123 123 122 122 123 123 124 124 125 125 126 126 126 127 127 127 126 126 126 125 124 124 123 122 121 120 119 117 116 115 114 112 110 108 105 102 99 97 94 92 90 87 85 83 81 80 78
121 121 121 121 122 122 123 124 125 125 126 126 126 126 126 126 126 126 126 126 126 126 126 126 126 126 126 126 126 125 125 125 124 123 123 122 122 121 121 121 121 122 123 124 125 125 125 125 126 126 126 126 126 126 125 125 124 124 123 122 122 121 120 119 118 117 115 113 112 109 107 105 102 99 96 94 92 90 87 85 82 80 78 77 76
125 125 126 126 126 127 127 128 129 129 129 129 128 128 127 127 127 127 127 127 127 127 127 127 127 126 125 124 123 122 122 121 120 120 120 120 120 120 121 121 122 123 124 124 124 124 124 124 124 124 124 124 124 124 123 123 122 122 121 121 120 120 120 119 117 116 114 111 109 106 104 102 99 97 95 93 91 89 87 85 81 78 75 74 73
130 130 130 130 131 131 131 132 132 132 131 130 130 129 129 128 128 128 128 128 128 128 127 127 125 124 123 121 120 119 119 118 118 118 119 119 120 121 122 122 123 123 123 123 123 123 123 123 122 122 122 122 121 121 121 120 120 119 119 119 118 118 118 117 115 113 110 107 105 102 100 98 97 95 94 92 91 89 88 85 82 79 75 73 71
133 133 133 133 133 133 134 134 134 133 132 131 131 130 130 129 129 129 129 129 128 127 126 124 122 121 119 119 118 118 118 118 119 119 120 121 122 122 123 123 123 123 123 123 123 122 122 121 121 120 120 120 119 119 118 118 117 117 117 117 116 115 114 113 111 109 106 103 100 98 96 94 93 92 91 90 89 88 87 85 83 80 77 74 71
135 135 135 135 135 135 135 135 134 133 132 131 131 131 130 130 130 129 129 127 126 124 122 121 120 119 119 118 119 119 119 120 120 120 121 122 122 122 123 123 123 122 122 122 121 121 120 119 119 119 119 118 118 117 116 116 115 115 115 115 114 112 111 109 107 105 102 99 97 95 93 92 90 89 88 88 87 86 85 84 81 79 76 74 71
135 135 135 135 135 135 135 134 134 133 132 132 132 131 131 130 129 127 126 124 122 121 120 120 119 119 120 120 120 120 120 121 121 121 122 122 122 122 122 122 122 122 121 120 119 118 117 117 117 117 117 116 116 115 115 114 114 113 113 112 111 109 106 105 103 101 99 96 94 93 91 90 89 87 86 86 85 83 82 81 79 77 75 72 70
135 135 135 135 135 134 134 133 133 133 132 132 131 131 129 128 126 124 123 122 121 120 120 120 120 121 121 121 121 121 121 121 121 122 122 122 122 122 122 122 121 120 119 118 117 116 116 116 116 115 115 114 114 114 113 113 112 111 110 109 107 105 102 100 99 97 96 94 92 90 89 88 87 86 85 84 83 82 80 78 77 75 73 70 69
134 134 134 134 133 133 133 133 132 132 131 130 129 127 126 125 123 122 122 121 121 121 121 121 121 122 122 122 122 122 121 121 121 121 121 121 121 121 121 120 119 117 116 115 115 115 115 115 114 113 113 112 112 112 112 111 110 108 107 105 104 101 99 98 96 95 93 91 89 88 87 86 85 84 83 82 81 80 78 76 75 73 71 69 67
133 133 133 133 132 132 132 131 130 129 128 127 126 125 124 123 122 122 122 121 121 122 122 122 122 122 122 122 122 122 121 121 121 121 121 121 120 120 119 117 116 115 114 113 113 113 114 113 113 112 111 111 111 110 110 109 107 105 104 102 101 99 97 95 94 92 91 89 87 86 84 83 82 82 81 80 79 78 76 75 73 71 70 68 66
132 132 131 131 130 129 128 127 126 126 125 124 124 123 123 123 122 122 122 122 122 122 122 122 122 122 122 122 122 122 121 121 121 120 120 119 118 117 116 114 113 112 112 112 112 112 112 111 111 110 110 109 108 108 106 105 104 102 101 100 98 97 95 94 92 90 88 87 85 84 82 81 79 79 78 77 76 75 74 73 71 69 68 67 65
130 129 128 127 126 126 125 125 124 124 124 124 123 123 123 122 122 122 122 122 122 122 122 122 122 122 121 122 122 121 121 120 120 119 118 117 115 114 113 112 111 110 110 110 111 110 110 110 109 108 107 106 105 104 103 101 100 99 98 98 97 95 94 92 90 88 86 84 83 82 80 78 76 76 75 74 73 73 72 70 69 67 66 65 63
127 126 125 125 125 125 124 124 124 124 124 124 123 123 123 122 122 123 123 123 122 122 122 122 122 121 121 121 121 120 120 119 118 117 116 114 113 112 111 110 110 109 109 109 109 109 108 108 107 106 104 103 102 100 99 98 98 97 96 95 94 93 92 90 88 86 84 82 81 79 77 75 73 72 72 71 70 69 69 68 66 65 64 63 62
125 125 125 125 125 125 125 125 125 124 124 123 123 123 123 123 123 123 123 123 123 123 122 122 121 121 120 119 119 118 117 116 115 114 113 112 111 111 110 109 109 109 108 108 108 107 107 105 104 103 101 100 98 97 96 96 95 95 94 93 92 91 90 88 86 84 82 81 79 77 75 72 70 69 68 68 68 67 66 65 64 63 62 61 60
125 125 125 125 125 125 125 125 125 124 124 123 123 123 123 123 123 124 123 123 123 122 122 121 120 119 119 118 117 116 115 114 113 112 112 111 110 110 109 109 109 108 108 107 106 105 105 103 102 100 98 96 95 94 94 93 93 92 91 90 89 88 87 86 84 82 80 79 77 75 72 69 67 66 66 66 65 64 63 63 62 61 59 59 58
126 126 126 125 125 125 125 125 124 124 124 124 124 124 124 124 124 124 123 123 122 121 120 119 118 117 116 115 114 114 113 113 112 111 111 110 110 109 109 109 108 107 106 105 104 103 102 101 99 97 96 94 93 92 91 91 90 90 89 88 87 86 85 83 82 80 79 77 75 73 70 67 65 65 64 63 63 62 61 60 59 58 57 56 55
126 126 125 125 125 125 125 125 125 125 125 125 125 125 125 124 124 123 122 121 120 119 118 117 116 115 114 114 113 112 112 112 111 111 110 110 109 108 108 108 107 106 105 104 102 101 100 98 97 95 94 93 91 90 89 88 88 87 86 86 85 84 82 81 80 78 77 75 73 71 68 66 64 63 62 61 61 60 59 58 57 56 55 55 54
126 126 126 126 126 125 125 125 125 125 125 125 125 124 124 123 122 121 120 119 119 118 117 116 115 114 113 113 112 112 112 111 111 110 109 109 108 107 107 107 106 105 103 102 100 98 96 95 94 93 93 91 90 88 87 86 85 85 84 83 82 81 80 78 77 76 75 73 71 69 67 65 63 62 61 60 59 58 57 56 55 54 53 53 52
126 126 126 126 126 126 126 125 125 125 124 123 123 122 121 120 120 119 118 118 117 116 115 114 114 113 113 112 112 112 111 111 110 109 108 107 107 106 105 105 104 103 101 99 97 95 94 93 92 91 90 89 88 87 86 85 84 83 82 80 79 78 77 76 75 74 74 72 70 68 66 64 62 61 59 58 57 56 55 54 53 52 52 51 51
126 126 126 125 125 125 124 124 123 122 122 121 120 120 119 119 118 118 117 116 116 115 114 114 113 112 112 112 111 111 110 110 109 108 107 106 105 104 103 103 101 100 98 96 94 93 91 91 90 89 88 87 86 85 84 83 82 80 79 77 76 75 75 74 73 73 72 70 68 66 64 62 61 60 58 57 56 54 54 53 52 51 50 49 49
124 124 124 123 123 122 121 121 120 120 119 119 119 118 118 118 117 117 116 116 115 114 114 113 112 112 111 111 110 109 109 108 107 107 106 104 103 102 101 100 99 97 95 93 92 90 89 88 87 87 86 85 84 83 82 80 79 77 76 75 74 74 73 72 71 70 69 68 66 64 62 61 59 58 57 55 54 53 52 51 50 49 49 48 47
121 121 120 120 119 119 119 119 119 119 118 118 118 118 117 117 117 116 116 115 115 114 113 112 111 111 110 109 108 107 107 106 106 105 104 103 102 100 99 97 96 94 93 92 90 89 87 86 85 84 84 83 82 80 79 78 77 76 75 74 73 72 71 70 69 68 67 66 64 63 61 59 58 57 55 54 53 51 50 49 49 48 47 46 45
Wind_Direction
291 293 294 294 294 293 293 292 291 291 292 292 293 294 295 296 297 297 298 297 297 296 295 294 294 294 293 293 293 292 292 292 292 292 293 293 293 293 293 293 293 293 293 294 294 295 295 295 295 295 295 295 295 295 296 296 297 297 298 298 299 299 300 300 300 300 300 300 300 300 300 299 300 300 300 300 300 300 300 300 301 301 302 302 302
293 295 296 296 296 295 294 294 294 294 294 295 296 297 297 298 298 299 298 298 297 296 295 294 293 293 292 292 292 291 291 292 292 292 293 293 293 293 293 293 293 294 294 295 295 295 295 295 295 295 295 295 295 295 296 296 297 298 299 299 299 299 300 299 299 300 300 300 300 300 299 299 299 299 299 299 300 300 301 301 302 302 303 303 303
295 295 296 297 297 296 295 295 295 295 295 296 297 297 298 298 299 299 299 298 297 296 295 294 293 292 292 291 291 291 291 292 292 293 293 293 293 294 294 294 295 295 295 295 295 295 295 295 295 294 294 294 294 295 296 297 298 299 299 299 299 299 300 299 299 299 300 300 300 300 299 299 299 299 299 300 300 301 302 302 303 304 304 304 304
295 295 296 297 297 296 295 295 295 295 295 296 297 297 298 298 299 300 299 299 298 297 296 294 293 292 292 291 291 292 292 293 294 295 295 294 295 295 295 295 295 295 295 295 294 295 295 295 294 294 294 295 295 296 297 298 298 298 298 298 299 299 299 299 299 299 299 299 299 299 299 299 299 300 300 301 302 303 303 304 304 304 304 305 305
294 295 295 296 296 296 295 295 295 295 296 296 297 297 297 298 298 299 299 299 298 297 296 295 294 294 293 293 293 293 294 295 295 295 295 295 295 295 295 295 295 295 295 294 294 294 295 295 295 296 296 297 297 297 298 298 298 298 298 299 299 300 299 299 299 299 299 299 299 299 299 300 301 301 302 303 304 304 304 304 304 305 305 306 307
293 294 294 295 295 295 295 295 295 296 296 297 297 297 296 297 298 298 298 297 296 296 295 295 294 294 294 294 294 294 294 294 294 294 294 295 295 295 295 295 295 295 295 294 295 295 296 297 298 298 298 298 298 298 298 299 299 299 300 300 301 301 300 300 300 300 299 299 299 300 301 302 303 304 304 305 305 304 304 305 306 306 307 308 308
292 292 293 294 294 294 295 295 296 296 296 296 296 295 295 296 297 297 296 295 295 294 293 293 293 293 293 293 293 293 293 293 293 294 294 294 294 295 295 295 295 295 295 295 297 298 299 299 300 300 299 299 300 300 300 301 301 302 302 302 302 302 301 301 301 300 300 301 302 303 304 305 305 305 305 305 304 305 305 306 307 307 308 308 308
291 292 292 293 293 294 294 295 295 295 294 294 293 293 294 295 295 295 294 294 293 292 292 293 293 293 292 292 292 292 292 293 293 293 294 294 294 294 294 295 296 296 297 298 300 301 301 301 301 301 301 302 302 303 303 303 303 303 303 303 303 303 302 302 302 302 303 304 305 305 306 306 305 305 305 305 305 306 307 307 308 308 308 308 308
290 290 291 292 292 293 293 294 293 293 293 292 292 292 293 294 293 293 292 292 292 292 292 292 292 292 291 291 292 292 292 292 293 293 293 294 294 295 296 297 298 299 300 301 302 302 302 303 303 304 304 304 304 304 304 304 303 303 303 304 304 304 304 304 305 305 306 306 307 306 306 306 305 306 306 306 307 308 308 308 308 308 308 308 308
289 290 290 291 291 292 293 293 293 292 292 291 291 292 292 292 291 291 291 291 292 292 292 292 292 291 291 291 291 292 292 292 293 293 294 295 296 297 298 299 300 300 301 302 303 304 304 305 305 305 305 305 305 305 305 304 304 304 305 305 306 306 306 307 308 308 308 307 306 306 306 306 307 308 308 308 308 308 308 308 308 308 308 308 309
289 289 290 290 291 291 292 292 292 292 292 292 292 291 291 290 290 290 291 291 291 291 292 292 291 291 291 291 291 292 292 293 294 295 296 297 297 298 300 300 301 302 303 304 305 305 305 305 305 305 305 305 305 306 306 306 306 306 306 307 308 308 309 309 309 308 307 306 306 307 307 308 309 309 309 309 309 308 308 308 308 308 308 309 309
288 289 289 290 290 291 291 292 292 293 292 292 291 290 290 290 290 290 291 291 291 291 292 292 292 291 292 292 292 292 293 294 295 296 297 298 298 300 301 301 302 303 304 305 305 305 306 306 305 306 306 306 307 307 307 306 307 307 308 309 310 310 310 309 308 307 306 306 307 309 309 309 310 310 309 309 308 308 308 308 308 309 309 309 310
287 288 289 289 290 290 290 291 292 292 291 290 288 289 290 290 290 291 291 291 291 292 292 292 292 293 293 293 293 294 294 295 296 297 298 299 300 301 301 302 303 304 305 305 306 306 306 306 306 307 307 308 308 307 307 307 308 309 310 310 310 310 309 308 307 306 306 308 309 310 310 310 310 309 308 308 308 308 308 309 309 310 310 310 311
287 287 288 288 289 290 290 290 290 290 289 287 287 288 289 290 290 291 291 292 292 292 292 293 293 293 294 295 295 296 297 297 298 299 300 300 301 301 302 303 304 305 305 305 306 306 306 307 308 308 308 308 308 308 308 308 309 310 310 310 309 309 308 308 307 307 308 310 311 310 310 309 309 308 308 308 308 308 309 309 310 310 310 311 311
286 287 288 288 289 289 289 289 288 287 285 285 286 288 289 290 290 291 291 292 292 293 293 294 294 294 295 296 297 298 298 299 299 300 300 300 301 302 303 303 304 304 305 305 306 306 307 308 309 309 308 308 308 308 309 309 310 310 310 309 309 308 308 308 308 308 309 310 310 309 308 308 308 308 308 308 308 308 309 310 310 310 310 310 310
286 287 288 288 289 288 288 287 285 284 284 284 286 287 288 289 289 290 291 292 293 293 294 294 295 295 296 297 298 298 299 299 300 300 300 301 301 302 303 304 304 305 305 306 306 307 308 309 308 308 308 308 308 309 309 309 309 309 309 308 308 309 309 308 308 309 309 309 308 308 307 307 307 307 308 308 308 309 309 310 310 309 309 310 310
285 286 287 287 287 286 285 284 283 282 283 284 286 287 288 288 289 289 290 291 292 293 294 295 296 297 297 298 299 299 300 300 300 300 301 301 302 303 304 304 305 305 306 306 307 308 308 308 307 308 308 308 309 309 309 309 309 309 308 308 308 309 308 308 308 308 308 308 307 307 307 307 307 308 308 308 308 309 309 309 309 309 310 310 309
284 285 285 285 285 284 282 281 281 282 283 285 286 287 287 288 288 289 290 291 293 294 295 296 297 298 299 299 300 300 300 301 301 301 302 302 303 303 304 304 305 305 306 306 307 308 307 307 307 308 308 309 309 309 309 308 308 308 308 308 308 308 307 306 307 307 307 307 307 307 307 307 308 308 308 309 309 309 309 309 309 309 310 309 309
282 283 283 283 283 283 282 281 281 282 283 285 286 286 287 288 288 289 291 292 294 295 296 297 298 299 300 300 300 300 301 301 301 302 302 303 303 304 304 305 306 306 306 307 307 307 307 307 308 308 309 309 308 308 308 307 307 307 307 307 307 306 306 306 306 306 306 306 306 306 307 308 308 308 308 309 309 309 309 309 309 309 309 309 308
281 281 281 281 281 282 282 282 282 283 284 285 286 286 287 288 289 291 292 294 296 297 298 299 299 300 300 300 301 301 301 301 302 302 303 303 303 304 305 306 306 306 306 306 306 307 307 308 308 308 308 307 307 307 306 306 306 306 306 306 306 305 305 306 306 306 305 305 306 306 307 308 308 308 308 308 308 309 309 309 309 309 309 309 308
280 280 280 280 281 282 282 283 283 284 285 286 286 288 289 290 291 293 295 296 297 298 299 300 300 300 301 301 301 301 301 302 302 302 303 304 304 305 306 306 306 306 306 306 307 307 307 307 307 307 306 306 306 305 305 305 305 305 305 305 305 305 305 305 305 305 305 306 306 307 307 307 307 308 308 308 308 309 309 309 309 309 309 308 308
280 280 280 281 282 282 283 284 285 286 287 288 289 290 291 293 294 295 297 298 299 300 300 301 301 301 301 301 301 301 302 302 303 303 304 304 305 305 305 305 306 306 306 307 306 306 306 305 305 305 305 305 304 304 304 304 304 304 305 305 305 305 305 305 305 305 305 306 306 307 307 307 307 308 308 308 309 309 309 309 309 309 309 309 308
280 280 281 282 283 284 286 287 288 289 290 291 292 293 294 296 297 298 299 299 300 301 301 301 301 301 301 301 302 302 303 303 303 303 304 304 304 305 305 305 306 306 306 305 305 304 304 304 304 303 303 303 303 303 303 303 304 304 304 305 305 305 305 305 305 305 305 306 306 306 307 307 307 307 308 308 308 309 309 309 309 309 309 308 307
281 282 283 284 286 287 288 289 290 292 293 294 295 296 297 298 298 299 300 301 301 302 302 302 302 301 301 301 302 302 302 302 303 303 304 304 304 305 305 305 304 304 304 303 303 303 303 302 302 302 302 302 302 302 303 303 303 304 304 304 304 304 304 304 305 305 305 306 306 306 306 306 307 307 307 307 308 308 308 308 308 308 308 307 306
283 285 286 287 288 289 290 292 293 294 295 296 297 298 298 299 299 300 300 301 301 301 301 301 301 301 301 301 301 302 302 302 303 303 304 304 304 303 303 302 302 302 302 302 302 302 301 301 301 301 301 302 302 302 303 303 303 303 304 304 303 303 304 304 304 305 305 306 306 306 306 306 306 307 307 307 307 307 307 307 307 307 307 306 306
287 288 289 290 290 292 293 294 295 297 297 298 298 299 299 299 300 300 300 300 301 301 300 300 300 301 301 301 302 302 302 303 303 302 302 302 301 301 301 301 301 301 301 301 301 301 301 301 301 301 301 302 302 302 302 303 303 303 303 303 303 303 303 304 304 304 305 305 305 306 306 306 306 307 307 307 307 307 306 306 307 306 306 306 305
290 291 291 292 293 295 296 297 298 298 299 299 299 299 299 299 299 300 300 300 300 300 300 300 300 301 301 301 301 302 301 301 301 301 300 300 300 300 300 300 300 300 300 300 300 300 300 301 301 301 301 302 302 302 302 302 302 302 302 302 302 302 303 303 304 304 304 305 305 305 305 306 306 306 306 306 306 306 306 306 306 306 306 305 305
292 293 294 295 296 296 297 298 298 298 298 298 298 298 299 299 299 299 299 299 300 300 300 300 300 301 301 301 300 300 300 300 299 299 299 299 299 299 299 299 299 299 299 299 300 300 301 301 301 302 302 302 302 302 302 302 302 302 302 302 302 303 303 303 304 304 304 304 304 305 305 305 306 306 306 306 306 305 306 306 306 306 305 305 305
293 294 295 295 296 297 297 297 298 298 298 298 298 298 298 299 299 299 299 299 300 300 300 300 300 300 300 299 299 299 299 299 299 299 299 299 298 298 298 298 299 299 299 300 300 301 301 302 302 302 302 302 302 302 302 302 302 302 302 302 303 303 303 303 304 304 304 304 305 305 305 306 306 306 306 305 305 305 305 306 306 305 305 305 305
294 294 295 295 296 296 296 296 297 297 297 297 298 298 298 298 298 299 299 299 299 299 299 299 299 298 298 298 298 298 298 298 298 298 298 297 297 298 298 298 299 299 300 300 301 301 301 301 302 302 302 302 302 302 301 301 302 302 302 303 303 303 303 303 304 304 304 304 305 305 305 305 305 305 305 304 304 305 305 305 305 305 305 305 305
293 293 294 294 295 295 295 296 296 296 297 297 298 298 298 298 298 298 298 298 298 298 298 298 298 298 298 297 297 297 297 297 297 297 297 297 297 298 298 299 300 300 300 300 300 301 301 301 301 301 301 301 301 301 301 302 302 302 303 303 303 303 303 303 303 304 304 304 305 305 305 304 304 304 304 304 304 304 303 303 303 303 304 304 303
292 293 294 294 295 295 296 296 296 296 297 297 297 297 297 297 297 297 297 297 297 297 297 297 297 297 297 297 296 296 296 296 296 297 297 298 298 299 299 299 300 300 300 300 300 300 300 300 301 301 300 300 300 301 301 301 302 302 302 303 303 303 303 303 303 303 304 304 304 304 304 304 304 304 304 304 304 304 303 303 303 303 303 302 301
293 294 294 294 295 295 295 295 295 295 296 296 296 296 296 296 296 296 296 296 296 296 296 296 296 296 296 296 296 296 296 297 297 298 298 299 299 299 299 299 299 299 299 299 300 300 300 300 300 300 300 300 300 300 301 301 301 302 302 302 302 302 302 302 302 303 303 303 303 304 304 304 304 304 304 304 304 304 303 303 303 304 303 302 301
292 292 292 293 293 293 293 293 294 294 294 294 295 295 295 295 295 295 295 295 295 295 295 295 295 295 296 296 296 297 297 298 298 299 299 299 299 299 299 299 299 299 299 299 300 300 300 300 300 300 300 300 300 300 301 301 301 301 301 301 301 301 301 301 302 302 302 303 303 303 303 303 303 303 303 303 303 303 303 303 303 303 303 303 302
289 289 290 290 291 291 291 291 292 292 293 293 293 294 294 294 294 294 294 294 294 294 295 295 296 296 297 297 297 298 298 298 298 298 298 298 298 298 298 298 299 299 299 300 300 300 300 300 299 299 299 300 300 300 300 300 300 300 300 300 300 301 301 301 301 302 302 302 303 303 303 302 302 302 302 302 301 301 302 302 302 302 302 302 301
286 287 288 288 289 289 290 290 291 291 292 292 292 292 292 293 293 293 293 294 294 295 296 296 297 297 297 297 297 297 298 298 298 298 298 298 298 298 298 299 299 299 300 300 300 300 299 299 299 299 299 300 300 300 300 300 300 300 300 300 300 300 301 301 301 301 302 302 302 302 302 302 302 301 301 301 300 300 301 301 301 301 300 300 300
285 286 286 287 287 288 289 289 290 290 290 291 291 291 291 292 292 293 294 294 295 296 296 296 296 297 297 297 297 297 297 297 298 298 298 298 298 298 299 299 299 299 300 300 300 299 299 299 299 299 300 300 300 300 300 300 300 300 300 300 300 300 300 301 301 301 302 302 302 302 302 301 301 301 300 300 300 300 300 300 300 299 299 299 298
284 285 285 286 286 287 288 288 288 289 289 290 290 291 291 292 293 294 294 295 295 295 296 296 296 296 296 297 297 297 297 297 297 297 298 298 298 299 299 299 299 299 299 300 299 299 299 299 299 300 300 300 300 300 300 300 300 300 300 300 300 300 301 301 301 301 301 302 302 301 301 300 300 300 300 299 299 299 299 299 299 298 298 297 297
283 284 284 285 285 286 287 287 288 288 289 290 290 291 292 292 293 294 294 294 295 295 295 295 296 296 296 296 297 297 297 297 297 298 298 298 298 298 299 299 299 299 299 299 299 299 299 299 300 300 300 300 300 300 300 300 300 300 300 300 300 300 301 301 301 301 301 301 301 300 300 299 299 299 299 299 298 298 298 298 298 297 297 297 296
283 283 284 284 285 286 286 287 288 288 289 290 291 291 292 292 293 293 294 294 294 294 295 295 295 296 296 296 296 297 297 297 298 298 298 298 298 298 298 299 299 299 299 299 299 299 299 299 300 300 300 300 300 300 300 300 300 300 300 300 300 300 301 301 301 301 301 301 300 300 299 299 299 298 298 298 298 298 297 297 297 297 297 296 296
283 283 284 285 285 286 287 287 288 289 289 290 291 291 292 292 293 293 294 294 294 294 294 295 295 296 296 296 297 297 297 298 298 298 298 298 298 298 299 299 299 299 299 299 299 299 299 300 300 300 300 300 300 300 300 300 300 300 300 300 300 300 300 300 301 301 301 300 300 299 299 299 299 298 298 297 297 297 297 297 297 296 296 296 295
284 285 285 286 286 287 288 288 289 289 290 290 291 291 292 292 293 293 293 293 294 294 294 295 295 296 296 297 297 297 298 298 298 298 298 298 298 298 299 299 299 299 299 299 299 299 300 300 300 300 300 300 300 300 300 300 299 299 299 300 300 300 300 300 300 301 300 300 299 299 299 299 299 298 297 297 296 296 296 296 296 296 295 295 295
285 285 286 286 287 287 288 288 289 289 290 290 291 291 292 292 292 292 293 293 294 294 295 295 296 296 297 297 297 297 297 297 297 298 298 298 298 299 299 299 299 299 299 299 299 300 300 300 300 300 300 300 300 300 299 299 299 299 299 299 299 299 300 300 300 300 300 300 299 299 299 299 299 298 297 296 296 296 296 296 295 295 295 295 295
285 285 286 286 287 287 288 288 289 289 290 290 291 291 291 291 292 292 293 293 294 294 295 295 296 296 297 297 297 297 297 297 298 298 298 298 298 299 299 299 299 299 299 300 300 300 300 300 300 300 300 299 299 299 299 299 299 299 299 299 299 299 300 300 300 300 300 299 299 299 299 299 299 298 297 297 296 296 295 295 295 295 295 295 295
284 285 285 286 286 287 287 288 289 289 290 290 290 291 291 291 292 293 293 294 294 295 295 296 296 296 296 297 297 297 297 298 298 298 298 298 298 299 299 299 299 299 299 300 300 300 300 300 300 300 300 299 299 299 299 299 299 299 299 299 299 300 300 300 300 300 300 300 300 300 300 300 299 298 297 297 296 295 295 295 295 295 294 294 294
284 284 285 286 286 287 287 288 289 289 289 290 290 291 291 292 292 293 294 294 295 295 295 296 296 296 297 297 297 297 298 298 298 298 298 298 298 299 299 299 299 300 300 300 301 300 300 300 300 300 300 300 300 299 299 299 299 299 299 300 300 300 300 300 300 300 300 300 300 300 300 300 299 298 297 297 296 295 295 294 294 294 294 294 293
284 284 285 285 286 287 287 288 288 289 289 290 290 291 291 292 293 293 294 294 295 295 295 296 296 296 297 297 297 297 297 297 297 298 298 298 299 299 299 299 300 300 300 300 300 300 300 300 300 300 300 300 300 300 299 299 299 300 300 300 300 300 300 300 300 300 300 300 300 300 300 300 299 298 297 296 296 295 295 294 294 294 293 293 292
283 284 284 285 286 286 287 287 288 288 289 289 290 291 291 292 293 293 294 294 294 295 295 296 296 296 297 297 297 297 297 297 297 297 298 298 299 299 299 300 300 300 300 300 300 300 300 300 300 300 300 300 300 300 300 299 299 300 300 300 300 300 300 300 300 300 300 300 300 300 300 300 299 298 297 296 296 295 294 294 293 293 292 291 291
283 283 284 285 285 286 286 287 287 288 289 290 290 291 292 292 293 293 294 294 294 295 295 296 296 296 297 297 297 297 297 297 297 298 298 298 299 299 299 300 300 300 300 299 300 300 300 299 299 299 299 299 299 299 299 299 299 299 299 300 300 300 300 300 300 299 299 299 299 300 300 299 299 298 297 296 295 295 294 294 293 292 291 291 290
282 283 284 284 285 286 286 287 288 289 289 290 291 291 292 292 293 293 293 294 294 295 295 296 296 296 296 296 296 297 297 298 298 298 298 298 299 299 300 300 299 299 299 299 299 299 299 299 299 299 299 299 299 299 299 299 299 299 299 299 300 300 299 299 299 299 299 299 299 299 299 299 298 298 297 296 295 295 294 293 292 292 291 290 289
282 283 284 285 286 286 287 288 288 289 290 290 291 291 292 292 293 293 294 294 295 295 296 296 296 296 296 296 296 297 297 298 298 298 298 299 299 299 299 299 299 299 299 299 299 299 299 299 299 299 299 299 299 299 299 299 299 300 300 299 299 299 299 299 299 299 299 299 299 299 299 299 298 297 297 296 295 294 293 293 292 291 290 289 288
Height
10663 10661 10659 10658 10656 10654 10652 10649 10647 10645 10643 10641 10638 10636 10634 10631 10629 10626 10624 10621 10618 10615 10611 10608 10605 10602 10599 10596 10593 10589 10586 10582 10579 10575 10572 10568 10565 10561 10557 10554 10550 10546 10541 10538 10534 10530 10526 10521 10517 10512 10507 10503 10498 10494 10489 10485 10480 10474 10468 10462 10456 10450 10445 10438 10432 10423 10411 10403 10398 10393 10386 10379 10372 10365 10359 10351 10342 10336 10328 10318 10309 10300 10291 10282 10272
10655 10653 10651 10649 10647 10645 10644 10641 10639 10637 10635 10632 10630 10627 10625 10623 10621 10618 10615 10612 10609 10606 10603 10600 10597 10594 10590 10587 10583 10579 10576 10572 10569 10565 10562 10558 10554 10551 10547 10543 10539 10535 10531 10527 10523 10519 10515 10511 10506 10501 10496 10492 10487 10483 10479 10475 10470 10464 10457 10450 10444 10438 10433 10426 10419 10411 10401 10390 10382 10376 10371 10365 10358 10350 10344 10336 10328 10320 10312 10302 10294 10285 10275 10266 10257
10647 10645 10643 10641 10639 10637 10635 10633 10631 10629 10626 10624 10622 10619 10617 10615 10612 10610 10607 10604 10600 10597 10594 10591 10588 10584 10581 10577 10573 10569 10566 10562 10559 10555 10551 10547 10544 10540 10536 10532 10529 10525 10520 10516 10511 10507 10503 10499 10495 10489 10485 10480 10476 10472 10468 10464 10459 10453 10445 10438 10432 10426 10420 10412 10405 10398 10390 10379 10368 10361 10354 10348 10342 10334 10327 10321 10313 10305 10297 10288 10279 10270 10261 10252 10243
10639 10637 10635 10633 10631 10629 10627 10625 10623 10621 10618 10616 10614 10611 10609 10606 10603 10600 10597 10594 10591 10588 10585 10582 10578 10575 10571 10567 10563 10559 10555 10552 10548 10544 10540 10536 10533 10529 10525 10522 10518 10514 10510 10505 10500 10496 10492 10488 10483 10478 10472 10468 10463 10459 10455 10452 10447 10440 10432 10425 10419 10413 10406 10398 10391 10384 10377 10368 10357 10347 10340 10333 10325 10317 10311 10305 10298 10288 10281 10274 10265 10257 10248 10240 10231
10631 10629 10628 10626 10623 10621 10619 10617 10615 10613 10610 10608 10605 10603 10600 10597 10594 10591 10588 10585 10581 10578 10575 10572 10569 10565 10561 10557 10553 10549 10545 10541 10537 10533 10529 10525 10521 10518 10515 10511 10508 10504 10499 10494 10489 10485 10481 10476 10470 10465 10459 10454 10449 10445 10442 10438 10433 10426 10419 10413 10406 10399 10391 10383 10376 10369 10362 10354 10344 10334 10326 10318 10309 10301 10294 10289 10282 10273 10266 10260 10251 10242 10235 10227 10217
10623 10621 10619 10618 10615 10612 10611 10609 10606 10604 10601 10599 10596 10594 10591 10587 10584 10581 10578 10575 10572 10568 10565 10562 10558 10555 10551 10547 10543 10538 10535 10531 10527 10523 10518 10514 10510 10507 10504 10501 10497 10493 10488 10483 10478 10473 10469 10463 10457 10451 10445 10440 10435 10430 10426 10423 10417 10410 10404 10399 10392 10384 10375 10367 10360 10353 10346 10338 10329 10320 10311 10303 10294 10286 10280 10274 10267 10260 10253 10246 10236 10227 10221 10214 10204
10614 10612 10611 10609 10606 10603 10602 10599 10597 10594 10592 10589 10587 10584 10581 10578 10575 10572 10568 10565 10562 10559 10555 10552 10548 10545 10541 10536 10532 10528 10524 10520 10516 10512 10507 10503 10500 10497 10493 10490 10486 10481 10476 10471 10466 10461 10456 10450 10444 10437 10431 10425 10419 10413 10409 10405 10400 10394 10388 10383 10377 10368 10359 10351 10343 10336 10328 10320 10311 10303 10296 10287 10278 10272 10267 10259 10252 10245 10239 10233 10224 10215 10208 10202 10193
10606 10603 10602 10599 10597 10595 10593 10590 10587 10585 10582 10580 10577 10574 10571 10568 10565 10562 10559 10556 10552 10549 10546 10542 10538 10535 10530 10526 10522 10518 10514 10510 10505 10501 10497 10493 10489 10486 10482 10478 10474 10468 10463 10459 10454 10449 10443 10436 10430 10423 10416 10409 10403 10396 10391 10387 10382 10376 10371 10366 10360 10352 10343 10333 10324 10316 10309 10301 10292 10285 10280 10272 10263 10257 10252 10244 10236 10230 10224 10217 10211 10203 10196 10191 10183
10597 10594 10592 10590 10587 10585 10583 10580 10577 10575 10573 10570 10567 10564 10561 10558 10555 10552 10549 10546 10543 10539 10536 10532 10528 10524 10519 10515 10511 10507 10503 10499 10494 10490 10486 10482 10478 10474 10470 10466 10462 10456 10451 10447 10442 10436 10429 10422 10416 10408 10401 10394 10387 10380 10374 10369 10364 10358 10353 10348 10342 10334 10325 10315 10305 10297 10289 10282 10275 10269 10264 10258 10248 10241 10235 10227 10219 10214 10208 10201 10197 10191 10184 10179 10172
10587 10585 10583 10580 10578 10576 10572 10569 10567 10565 10563 10560 10557 10554 10551 10548 10545 10542 10539 10536 10532 10529 10525 10522 10518 10513 10508 10505 10501 10496 10492 10488 10483 10479 10475 10470 10465 10461 10458 10454 10449 10443 10439 10434 10428 10421 10415 10408 10401 10393 10386 10378 10370 10363 10356 10350 10345 10340 10336 10330 10323 10314 10306 10296 10287 10278 10270 10264 10259 10254 10249 10243 10233 10224 10217 10210 10203 10198 10192 10186 10182 10177 10171 10166 10159
10577 10575 10572 10570 10568 10565 10561 10558 10557 10555 10553 10550 10547 10544 10540 10538 10535 10532 10529 10525 10521 10518 10515 10511 10508 10503 10499 10494 10490 10485 10480 10476 10472 10467 10463 10458 10453 10449 10445 10441 10435 10430 10426 10420 10414 10407 10400 10393 10386 10378 10371 10363 10355 10348 10340 10332 10327 10323 10318 10312 10303 10294 10286 10279 10271 10262 10254 10249 10245 10239 10232 10226 10218 10208 10200 10194 10188 10182 10176 10170 10166 10162 10157 10152 10145
10567 10564 10562 10559 10557 10555 10551 10548 10546 10544 10542 10540 10537 10534 10530 10527 10524 10521 10518 10514 10511 10508 10504 10500 10496 10492 10488 10483 10478 10474 10469 10464 10459 10455 10451 10446 10441 10437 10433 10427 10422 10417 10412 10406 10399 10392 10385 10378 10371 10364 10356 10348 10340 10332 10323 10315 10310 10306 10300 10293 10284 10276 10268 10263 10255 10246 10238 10233 10230 10225 10216 10208 10203 10195 10185 10178 10174 10167 10161 10155 10150 10145 10140 10136 10131
10557 10554 10552 10549 10546 10544 10541 10538 10536 10533 10531 10528 10526 10524 10521 10517 10514 10511 10507 10503 10499 10496 10492 10487 10483 10479 10475 10471 10466 10462 10457 10451 10446 10442 10438 10433 10428 10424 10419 10414 10409 10404 10398 10391 10384 10377 10370 10363 10356 10348 10339 10331 10324 10316 10307 10300 10294 10289 10283 10276 10268 10261 10254 10248 10239 10228 10220 10217 10214 10208 10199 10191 10187 10181 10171 10163 10158 10152 10145 10140 10134 10127 10122 10118 10114
10547 10544 10542 10539 10536 10534 10531 10528 10526 10522 10519 10517 10515 10514 10510 10507 10504 10501 10497 10492 10488 10485 10480 10476 10472 10467 10462 10458 10453 10449 10444 10438 10433 10429 10425 10420 10415 10411 10407 10402 10397 10391 10384 10377 10370 10362 10354 10347 10340 10332 10322 10314 10307 10299 10291 10284 10278 10273 10267 10260 10254 10248 10241 10233 10222 10211 10206 10202 10198 10192 10184 10176 10171 10166 10157 10149 10143 10136 10130 10125 10118 10110 10105 10102 10099
10536 10534 10532 10529 10526 10523 10520 10517 10515 10511 10509 10506 10504 10502 10499 10496 10493 10490 10487 10483 10478 10474 10470 10466 10461 10455 10450 10446 10441 10437 10431 10425 10421 10417 10412 10407 10403 10398 10394 10390 10384 10377 10370 10363 10354 10346 10338 10331 10324 10315 10306 10298 10290 10281 10275 10269 10264 10259 10252 10246 10239 10233 10226 10216 10204 10196 10194 10190 10185 10179 10173 10165 10158 10152 10145 10137 10130 10122 10117 10113 10105 10096 10091 10088 10084
10525 10523 10521 10518 10516 10513 10510 10507 10504 10501 10498 10496 10494 10491 10488 10485 10483 10480 10476 10472 10468 10463 10459 10455 10450 10445 10440 10435 10430 10425 10419 10413 10409 10404 10399 10394 10389 10385 10381 10376 10370 10363 10356 10348 10339 10332 10324 10316 10308 10300 10291 10283 10273 10265 10259 10253 10249 10243 10237 10231 10224 10218 10211 10198 10186 10183 10181 10176 10170 10165 10159 10153 10146 10140 10133 10125 10117 10109 10104 10100 10092 10083 10078 10074 10069
10515 10513 10510 10508 10505 10502 10500 10496 10493 10490 10488 10485 10483 10480 10477 10474 10472 10469 10466 10462 10458 10453 10448 10443 10439 10434 10428 10423 10417 10412 10407 10401 10395 10391 10385 10380 10375 10370 10366 10362 10356 10350 10342 10333 10325 10318 10310 10301 10293 10284 10276 10268 10258 10251 10243 10237 10233 10227 10221 10215 10210 10205 10196 10183 10173 10171 10167 10160 10154 10149 10143 10137 10131 10125 10118 10110 10103 10097 10091 10086 10078 10070 10065 10059 10053
10504 10502 10500 10497 10494 10491 10489 10486 10483 10480 10477 10475 10472 10469 10466 10463 10460 10458 10455 10451 10446 10441 10437 10432 10427 10422 10416 10411 10405 10400 10394 10388 10382 10377 10372 10366 10361 10356 10351 10347 10343 10336 10327 10319 10311 10304 10295 10285 10276 10268 10260 10252 10244 10237 10229 10222 10217 10212 10205 10199 10195 10191 10182 10171 10164 10161 10153 10145 10139 10132 10126 10121 10114 10108 10102 10095 10087 10081 10077 10072 10064 10057 10051 10044 10037
10493 10491 10488 10486 10483 10480 10477 10475 10472 10469 10466 10464 10461 10457 10455 10451 10448 10446 10443 10439 10435 10430 10425 10421 10415 10410 10404 10399 10393 10387 10381 10375 10369 10363 10358 10352 10346 10341 10336 10332 10327 10319 10312 10306 10298 10289 10279 10269 10260 10252 10244 10238 10231 10224 10216 10208 10202 10196 10190 10185 10181 10177 10169 10159 10153 10148 10140 10132 10125 10118 10111 10105 10097 10091 10086 10079 10072 10065 10060 10056 10049 10042 10037 10030 10023
10481 10479 10476 10474 10471 10468 10466 10463 10461 10458 10454 10452 10448 10445 10442 10439 10436 10433 10430 10427 10423 10418 10413 10408 10403 10398 10392 10386 10380 10374 10368 10362 10356 10350 10344 10337 10331 10326 10320 10315 10310 10304 10298 10292 10284 10274 10263 10253 10245 10238 10231 10224 10218 10210 10202 10194 10187 10182 10177 10171 10166 10161 10154 10146 10140 10134 10126 10120 10114 10106 10099 10092 10084 10077 10071 10065 10059 10051 10044 10040 10035 10029 10022 10016 10010
10469 10466 10464 10462 10459 10456 10454 10451 10448 10445 10442 10439 10436 10432 10429 10426 10423 10420 10416 10413 10409 10405 10400 10395 10390 10385 10379 10373 10367 10361 10355 10349 10343 10336 10329 10322 10316 10310 10304 10299 10293 10288 10283 10276 10267 10258 10249 10240 10234 10226 10219 10212 10204 10196 10189 10181 10173 10169 10164 10156 10150 10144 10137 10131 10125 10118 10110 10104 10098 10092 10085 10078 10070 10064 10057 10050 10045 10037 10030 10024 10019 10015 10009 10002 9996
10455 10453 10451 10448 10445 10443 10440 10437 10434 10431 10428 10425 10422 10419 10416 10412 10409 10406 10403 10399 10395 10391 10386 10381 10376 10371 10365 10359 10353 10347 10341 10334 10328 10320 10314 10307 10301 10295 10289 10283 10276 10270 10266 10260 10251 10243 10236 10230 10223 10216 10208 10200 10192 10183 10176 10168 10160 10154 10148 10141 10134 10127 10121 10115 10110 10103 10096 10090 10083 10077 10071 10063 10055 10048 10041 10034 10029 10022 10015 10009 10004 9999 9995 9988 9981
10442 10439 10437 10434 10432 10429 10426 10423 10420 10417 10414 10411 10408 10405 10402 10398 10395 10391 10388 10384 10380 10375 10371 10366 10360 10355 10349 10343 10337 10331 10325 10319 10312 10306 10299 10293 10287 10279 10273 10266 10259 10253 10249 10245 10238 10230 10224 10218 10211 10204 10197 10189 10180 10172 10165 10157 10148 10140 10133 10125 10118 10111 10103 10097 10091 10085 10080 10076 10069 10063 10057 10050 10042 10036 10029 10021 10015 10009 10003 9996 9991 9987 9982 9976 9969
10428 10425 10422 10420 10417 10414 10412 10409 10406 10403 10400 10397 10394 10391 10387 10384 10381 10376 10373 10368 10364 10359 10354 10349 10344 10339 10334 10329 10323 10318 10312 10305 10299 10292 10285 10278 10271 10263 10257 10251 10245 10239 10235 10231 10225 10218 10211 10204 10197 10190 10183 10176 10169 10161 10153 10145 10136 10128 10120 10112 10103 10095 10087 10080 10074 10068 10063 10059 10053 10047 10043 10036 10029 10023 10017 10010 10004 9998 9992 9985 9980 9976 9971 9965 9959
10413 10410 10407 10405 10402 10400 10397 10395 10391 10388 10386 10383 10380 10377 10373 10370 10366 10361 10357 10353 10348 10344 10339 10334 10330 10325 10320 10315 10309 10303 10297 10289 10282 10276 10270 10263 10256 10249 10244 10238 10232 10226 10221 10216 10210 10203 10196 10189 10182 10176 10169 10162 10155 10148 10140 10132 10123 10115 10107 10098 10089 10082 10074 10066 10059 10053 10047 10043 10037 10031 10027 10021 10014 10008 10003 9997 9991 9986 9979 9974 9970 9965 9959 9954 9949
10397 10394 10392 10389 10387 10384 10382 10379 10377 10374 10371 10368 10365 10362 10358 10355 10351 10346 10342 10338 10333 10329 10324 10319 10314 10309 10304 10298 10292 10286 10280 10273 10267 10261 10256 10250 10244 10237 10231 10225 10218 10211 10205 10199 10193 10186 10180 10174 10167 10161 10154 10147 10140 10133 10126 10119 10110 10102 10094 10085 10077 10069 10061 10053 10046 10039 10033 10027 10022 10016 10010 10005 9999 9993 9988 9982 9978 9972 9966 9962 9958 9953 9947 9942 9937
10380 10378 10375 10373 10371 10368 10366 10364 10361 10359 10356 10353 10350 10347 10343 10339 10336 10331 10327 10323 10318 10313 10309 10304 10299 10294 10288 10283 10277 10271 10265 10259 10253 10248 10242 10236 10230 10223 10216 10210 10203 10196 10189 10183 10176 10170 10164 10158 10152 10145 10138 10131 10125 10118 10111 10104 10096 10088 10080 10072 10063 10056 10049 10041 10034 10026 10019 10013 10008 10002 9997 9991 9986 9980 9973 9968 9963 9958 9954 9950 9946 9941 9935 9930 9925
10364 10362 10359 10357 10355 10353 10351 10348 10346 10343 10341 10338 10335 10331 10327 10324 10320 10315 10311 10307 10302 10297 10292 10288 10283 10278 10273 10268 10262 10256 10250 10244 10238 10232 10226 10220 10214 10208 10201 10195 10188 10181 10175 10168 10161 10154 10148 10141 10134 10127 10120 10113 10106 10099 10092 10086 10078 10071 10063 10056 10048 10041 10034 10027 10021 10013 10006 10000 9994 9988 9983 9978 9973 9966 9960 9954 9949 9944 9940 9937 9933 9928 9924 9919 9914
10348 10346 10344 10342 10340 10338 10335 10333 10330 10327 10324 10321 10318 10314 10311 10307 10303 10299 10294 10290 10286 10282 10277 10272 10267 10262 10258 10252 10247 10241 10235 10229 10223 10217 10210 10205 10198 10192 10186 10180 10173 10166 10159 10152 10145 10139 10132 10125 10117 10110 10103 10096 10089 10082 10074 10067 10060 10052 10045 10037 10030 10024 10017 10011 10005 9998 9991 9985 9978 9973 9967 9962 9957 9952 9946 9940 9935 9930 9926 9923 9919 9915 9911 9907 9902
10332 10330 10328 10327 10324 10323 10320 10317 10315 10312 10308 10305 10301 10298 10294 10290 10287 10283 10279 10275 10271 10267 10262 10258 10253 10248 10243 10238 10232 10226 10220 10214 10208 10202 10196 10189 10183 10177 10171 10164 10158 10150 10143 10135 10129 10123 10117 10109 10102 10094 10087 10080 10073 10066 10058 10050 10042 10035 10028 10020 10012 10006 10000 9994 9988 9982 9976 9970 9964 9958 9952 9947 9943 9939 9934 9928 9923 9918 9914 9910 9907 9903 9899 9895 9890
10316 10315 10313 10311 10309 10307 10304 10301 10299 10295 10291 10288 10285 10281 10278 10274 10271 10267 10263 10259 10255 10251 10247 10242 10237 10232 10228 10223 10217 10211 10205 10199 10193 10187 10180 10174 10167 10161 10155 10148 10142 10135 10128 10121 10115 10109 10102 10095 10087 10080 10072 10063 10056 10048 10040 10033 10025 10018 10012 10004 9997 9989 9983 9978 9972 9967 9962 9956 9950 9944 9938 9932 9928 9924 9920 9915 9911 9906 9902 9899 9897 9895 9891 9886 9881
10301 10298 10296 10294 10292 10289 10286 10283 10280 10277 10274 10272 10268 10265 10262 10258 10255 10252 10248 10244 10240 10235 10230 10226 10221 10217 10212 10207 10202 10196 10190 10184 10177 10171 10165 10158 10151 10144 10139 10133 10128 10121 10114 10107 10101 10095 10089 10082 10075 10067 10059 10050 10042 10034 10026 10019 10011 10003 9997 9990 9983 9975 9968 9962 9957 9952 9947 9942 9936 9930 9923 9917 9912 9908 9904 9900 9895 9891 9887 9885 9884 9883 9882 9878 9873
10281 10279 10277 10275 10274 10271 10269 10266 10264 10261 10259 10256 10252 10249 10246 10243 10239 10235 10231 10227 10223 10218 10214 10210 10205 10201 10196 10190 10185 10179 10173 10167 10161 10155 10148 10142 10135 10129 10123 10118 10113 10107 10099 10092 10086 10079 10073 10066 10059 10052 10044 10036 10029 10021 10014 10007 9999 9991 9984 9977 9970 9963 9956 9949 9944 9939 9934 9929 9924 9918 9912 9906 9900 9894 9890 9885 9880 9875 9872 9869 9868 9868 9868 9865 9861
10265 10263 10262 10260 10258 10256 10253 10251 10248 10246 10243 10240 10237 10234 10230 10226 10222 10218 10214 10210 10206 10202 10198 10193 10189 10184 10179 10173 10167 10161 10155 10150 10144 10139 10132 10126 10120 10114 10107 10101 10097 10091 10084 10077 10070 10063 10056 10049 10041 10034 10027 10020 10014 10007 10000 9993 9986 9978 9971 9963 9957 9951 9944 9938 9931 9926 9921 9917 9912 9907 9901 9896 9890 9884 9879 9874 9869 9863 9859 9856 9855 9854 9853 9851 9848
10252 10251 10249 10247 10244 10241 10239 10236 10233 10230 10227 10224 10221 10217 10213 10210 10206 10202 10198 10194 10189 10185 10181 10176 10171 10166 10160 10155 10149 10144 10139 10134 10129 10123 10117 10110 10104 10098 10092 10085 10079 10073 10067 10061 10054 10047 10040 10033 10025 10018 10011 10004 9998 9992 9986 9979 9972 9965 9957 9949 9943 9937 9931 9925 9919 9913 9908 9904 9899 9894 9889 9884 9879 9875 9870 9864 9859 9854 9850 9846 9843 9842 9840 9838 9836
10240 10238 10235 10232 10229 10226 10223 10220 10217 10214 10211 10208 10204 10200 10197 10193 10189 10185 10181 10176 10172 10168 10163 10158 10153 10148 10142 10137 10133 10127 10123 10118 10113 10107 10101 10094 10088 10082 10075 10069 10062 10056 10050 10043 10037 10030 10024 10017 10009 10003 9996 9989 9983 9976 9970 9964 9957 9950 9942 9935 9929 9923 9918 9913 9906 9901 9895 9891 9887 9882 9877 9872 9867 9863 9858 9853 9848 9845 9841 9837 9833 9831 9829 9827 9824
10225 10222 10220 10216 10213 10210 10207 10204 10201 10198 10195 10191 10187 10183 10180 10175 10171 10168 10163 10159 10155 10150 10145 10140 10136 10131 10126 10121 10116 10111 10107 10102 10096 10090 10084 10078 10071 10065 10058 10052 10046 10039 10033 10026 10020 10013 10006 10000 9993 9987 9981 9974 9967 9960 9954 9947 9941 9934 9927 9921 9915 9910 9906 9900 9895 9889 9884 9880 9875 9870 9865 9859 9854 9850 9846 9842 9837 9833 9830 9827 9823 9820 9818 9816 9814
10208 10206 10203 10200 10197 10194 10191 10188 10185 10181 10178 10174 10170 10166 10162 10158 10154 10150 10146 10142 10138 10133 10128 10124 10119 10114 10109 10104 10099 10095 10091 10085 10079 10074 10068 10061 10055 10048 10041 10035 10029 10023 10017 10010 10003 9996 9989 9982 9977 9971 9966 9959 9952 9944 9938 9932 9925 9919 9912 9906 9900 9896 9892 9887 9882 9877 9872 9868 9864 9859 9854 9848 9843 9839 9835 9830 9826 9822 9819 9816 9813 9809 9806 9805 9803
10192 10189 10186 10183 10181 10178 10175 10171 10168 10164 10160 10156 10153 10149 10145 10141 10137 10134 10129 10125 10121 10116 10112 10107 10102 10097 10093 10087 10082 10078 10073 10068 10062 10057 10051 10045 10039 10032 10026 10020 10014 10008 10001 9995 9987 9980 9973 9966 9961 9955 9949 9943 9936 9929 9922 9916 9910 9904 9897 9891 9886 9882 9878 9873 9869 9864 9860 9855 9851 9847 9842 9838 9833 9829 9824 9819 9815 9811 9808 9805 9802 9798 9795 9793 9792
10175 10172 10169 10167 10164 10161 10157 10154 10150 10146 10143 10139 10136 10132 10129 10125 10121 10117 10113 10108 10104 10099 10095 10091 10086 10081 10076 10070 10065 10060 10056 10051 10045 10039 10034 10028 10022 10016 10010 10004 9998 9992 9986 9979 9972 9965 9958 9952 9946 9940 9934 9928 9921 9914 9907 9901 9895 9889 9883 9877 9872 9868 9864 9860 9856 9851 9847 9843 9838 9833 9830 9827 9823 9818 9813 9809 9804 9800 9797 9794 9791 9788 9785 9782 9780
10157 10154 10152 10149 10146 10143 10140 10136 10133 10130 10126 10123 10119 10116 10112 10108 10104 10100 10095 10091 10087 10082 10078 10074 10070 10065 10060 10054 10048 10043 10038 10033 10027 10022 10016 10011 10006 10000 9994 9988 9982 9977 9970 9963 9956 9950 9943 9937 9931 9925 9919 9913 9906 9899 9893 9887 9880 9875 9869 9864 9859 9854 9850 9847 9843 9839 9835 9831 9826 9821 9818 9815 9812 9807 9802 9798 9794 9790 9786 9783 9780 9778 9775 9772 9769
10139 10137 10134 10131 10128 10125 10122 10119 10116 10113 10109 10106 10103 10099 10095 10091 10087 10082 10078 10074 10070 10066 10062 10057 10053 10049 10044 10038 10032 10026 10021 10015 10010 10004 9999 9994 9989 9983 9978 9972 9966 9960 9954 9948 9941 9934 9928 9922 9916 9910 9905 9899 9892 9886 9880 9873 9867 9862 9856 9851 9846 9842 9837 9834 9831 9827 9823 9818 9814 9810 9807 9804 9801 9796 9791 9787 9783 9779 9776 9773 9770 9768 9765 9762 9759
10121 10119 10116 10113 10110 10107 10104 10101 10099 10096 10092 10089 10086 10082 10078 10074 10070 10066 10062 10058 10053 10049 10045 10040 10036 10031 10027 10022 10016 10010 10005 9999 9994 9988 9982 9977 9971 9966 9961 9955 9949 9944 9938 9932 9925 9918 9912 9906 9901 9895 9890 9885 9878 9873 9867 9860 9854 9849 9844 9839 9835 9830 9825 9821 9818 9814 9811 9806 9802 9799 9796 9793 9790 9786 9781 9776 9773 9769 9766 9763 9761 9758 9756 9753 9751
10104 10101 10099 10096 10093 10090 10088 10085 10082 10079 10076 10072 10069 10065 10061 10057 10053 10049 10045 10041 10036 10032 10028 10023 10019 10014 10009 10004 10000 9994 9988 9983 9977 9971 9966 9961 9955 9950 9944 9938 9932 9927 9922 9916 9909 9903 9896 9890 9885 9880 9876 9871 9865 9860 9854 9848 9842 9836 9831 9826 9822 9818 9813 9809 9805 9801 9798 9794 9791 9788 9785 9783 9779 9775 9770 9766 9763 9760 9757 9754 9751 9749 9747 9744 9742
10087 10085 10082 10080 10077 10074 10071 10068 10065 10062 10059 10055 10051 10047 10043 10039 10035 10032 10027 10023 10019 10015 10010 10006 10002 9997 9992 9987 9982 9977 9971 9966 9960 9955 9950 9944 9939 9933 9927 9921 9915 9910 9905 9900 9894 9887 9881 9875 9869 9864 9861 9857 9852 9847 9841 9835 9829 9824 9818 9813 9809 9805 9801 9797 9792 9789 9785 9782 9779 9776 9774 9772 9768 9764 9760 9756 9753 9750 9747 9745 9742 9740 9738 9736 9734
10071 10068 10066 10063 10060 10058 10055 10052 10049 10046 10042 10038 10034 10030 10026 10022 10018 10014 10010 10006 10002 9997 9993 9989 9985 9980 9975 9970 9965 9960 9954 9949 9943 9938 9933 9928 9923 9917 9911 9904 9898 9893 9888 9883 9878 9872 9866 9860 9854 9849 9845 9842 9838 9833 9828 9823 9817 9812 9806 9801 9797 9793 9789 9785 9780 9776 9773 9770 9767 9765 9762 9760 9757 9753 9750 9747 9743 9740 9738 9736 9734 9732 9730 9727 9725
10054 10052 10049 10047 10044 10042 10039 10036 10032 10028 10025 10021 10017 10013 10009 10005 10001 9997 9993 9989 9985 9981 9976 9972 9968 9963 9958 9954 9948 9943 9938 9932 9927 9922 9917 9912 9907 9901 9895 9888 9882 9877 9872 9867 9863 9857 9852 9846 9841 9835 9831 9827 9823 9819 9815 9810 9805 9800 9795 9790 9786 9782 9778 9773 9769 9765 9761 9759 9756 9754 9752 9750 9747 9743 9740 9737 9734 9731 9729 9727 9725 9723 9721 9719 9717
10038 10036 10034 10031 10029 10026 10022 10019 10015 10012 10008 10004 10000 9997 9993 9989 9985 9981 9977 9973 9969 9964 9960 9956 9951 9947 9942 9937 9932 9927 9921 9915 9910 9906 9900 9895 9890 9885 9879 9873 9867 9862 9857 9852 9848 9843 9838 9832 9827 9822 9817 9813 9809 9805 9801 9797 9793 9788 9784 9780 9775 9771 9767 9763 9759 9755 9751 9748 9746 9744 9741 9739 9736 9733 9730 9728 9725 9722 9720 9718 9716 9714 9713 9710 9708
10023 10020 10018 10015 10012 10009 10006 10003 9999 9995 9992 9988 9984 9980 9977 9973 9969 9965 9961 9956 9952 9948 9944 9939 9935 9930 9925 9920 9915 9910 9904 9898 9893 9888 9883 9879 9874 9869 9863 9857 9852 9847 9842 9838 9834 9830 9825 9820 9814 9809 9805 9800 9796 9792 9788 9784 9780 9777 9773 9769 9765 9761 9757 9753 9749 9745 9741 9738 9736 9734 9732 9729 9726 9723 9721 9718 9716 9714 9711 9709 9707 9706 9704 9702 9701
10006 10004 10001 9998 9995 9992 9989 9985 9982 9978 9975 9971 9968 9964 9960 9956 9953 9949 9944 9940 9936 9932 9927 9923 9918 9914 9909 9903 9898 9892 9887 9882 9876 9871 9866 9862 9857 9853 9848 9842 9837 9832 9828 9824 9820 9816 9812 9807 9802 9797 9793 9788 9784 9780 9776 9772 9768 9765 9761 9758 9755 9751 9747 9743 9740 9736 9732 9728 9726 9724 9722 9720 9717 9714 9711 9709 9707 9705 9703 9701 9699 9697 9696 9694 9693
9990 9987 9984 9981 9978 9975 9972 9968 9965 9961 9958 9954 9951 9947 9943 9940 9936 9931 9927 9923 9919 9914 9910 9906 9902 9897 9892 9886 9881 9876 9871 9865 9860 9855 9850 9845 9841 9837 9832 9827 9822 9818 9814 9810 9806 9803 9799 9794 9790 9785 9780 9776 9772 9768 9764 9760 9757 9753 9750 9747 9744 9741 9737 9734 9730 9726 9722 9719 9716 9714 9712 9710 9707 9705 9702 9700 9698 9696 9694 9692 9690 9689 9687 9686 9685